Weather History for Hamilton, OH

Change the Weather History Date:

Saturday, March 16, 2013

  Actual Average (KCVG) Record (KCVG)
Temperature  
Mean Temperature 48 °F 44 °F  
Max Temperature 59 °F 53 °F 83 °F (1945)
Min Temperature 37 °F 34 °F 9 °F (1970)
Degree Days  
Heating Degree Days 17 21  
Month to date heating degree days 386  
Since 1 July heating degree days 4213  
Cooling Degree Days 0 0  
Month to date cooling degree days 0  
Year to date cooling degree days 0  
Moisture  
Dew Point 42 °F    
Average Humidity 83    
Maximum Humidity 100    
Minimum Humidity 64    
Precipitation  
Precipitation 0.30 in 0.13 in 2.22 in (1963)
Month to date precipitation 1.87  
Year to date precipitation 7.68  
Snow  
Snow 0.00 in 0.10 in 4.30 in (1956)
Month to date snowfall 1.9  
Since 1 July snowfall 20.5  
Snow Depth -    
Sea Level Pressure  
Sea Level Pressure 29.78 in    
Wind  
Wind Speed 5 mph (North)    
Max Wind Speed 17 mph    
Max Gust Speed 22 mph    
Visibility 7 miles    
Events Rain , Thunderstorm    
T = Trace of Precipitation, MM = Missing Value Source: NWS Daily Summary

Daily Weather History Graph

Daily Weather History Graph

Search for Another Location

Airport:

Trip Planner

Search our weather history database for the weather conditions in past years. The results will help you decide how hot, cold, wet, or windy it might be!

Date:

Astronomy

Mar. 16, 2013 Rise Set
Actual Time 7:47 AM EDT 7:46 PM EDT
Civil Twilight 7:20 AM EDT 8:13 PM EDT
Nautical Twilight 6:49 AM EDT 8:44 PM EDT
Astronomical Twilight 6:18 AM EDT 9:15 PM EDT
Moon 10:18 AM EDT (3/16) No Moon Set
Length of Visible Light 12h 52m
Length of Day
11h 58m
Waxing Crescent, 23% of the Moon is Illuminated
Mar 16
Waxing Crescent
Mar 19
First Quarter
Mar 27
Full
Apr 3
Last Quarter
Apr 10
New

Hourly Weather History & Observations

Time (EDT) Temp. Windchill Dew Point Humidity Pressure Visibility Wind Dir Wind Speed Gust Speed Precip Events Conditions
12:53 AM 45.0 °F - 41.0 °F 86% 29.80 in 10.0 mi Calm Calm - 0.01 in Rain Light Rain
1:53 AM 45.0 °F 41.2 °F 41.0 °F 86% 29.77 in 6.0 mi ENE 6.9 mph - 0.10 in Rain , Thunderstorm Light Rain
2:12 AM 44.6 °F 43.1 °F 42.8 °F 93% 29.75 in 2.0 mi Variable 3.5 mph - 0.12 in Rain , Thunderstorm Thunderstorms and Rain
2:21 AM 44.6 °F - 42.8 °F 93% 29.75 in 8.0 mi Calm Calm - 0.12 in Rain , Thunderstorm Light Thunderstorms and Rain
2:53 AM 44.1 °F 41.5 °F 43.0 °F 96% 29.73 in 6.0 mi East 4.6 mph - 0.12 in   Overcast
3:53 AM 44.1 °F 40.8 °F 42.1 °F 93% 29.69 in 7.0 mi SE 5.8 mph - N/A   Clear
4:53 AM 44.1 °F - 42.1 °F 93% 29.67 in 9.0 mi Calm Calm - N/A   Clear
5:53 AM 45.0 °F - 42.1 °F 90% 29.66 in 7.0 mi Calm Calm - N/A   Clear
6:53 AM 44.1 °F - 42.1 °F 93% 29.66 in 8.0 mi Calm Calm - N/A   Scattered Clouds
7:48 AM 44.6 °F - 42.8 °F 93% 29.68 in 2.5 mi Calm Calm - 0.03 in Rain Light Rain
7:53 AM 45.0 °F - 43.0 °F 93% 29.68 in 4.0 mi Calm Calm - 0.04 in Rain Light Rain
8:08 AM 44.6 °F 40.7 °F 42.8 °F 93% 29.62 in 2.0 mi SE 6.9 mph - 0.03 in Rain Light Rain
8:18 AM 44.6 °F 43.1 °F 44.6 °F 100% 29.63 in 4.0 mi Variable 3.5 mph - 0.03 in   Mostly Cloudy
8:53 AM 46.0 °F - 45.0 °F 96% 29.65 in 3.0 mi Calm Calm - 0.03 in   Scattered Clouds
9:53 AM 50.0 °F - 48.9 °F 96% 29.66 in 7.0 mi WNW 4.6 mph - 0.00 in   Clear
10:53 AM 54.0 °F - 48.0 °F 80% 29.67 in 10.0 mi Variable 4.6 mph - N/A   Clear
11:53 AM 57.9 °F - 50.0 °F 75% 29.70 in 10.0 mi WNW 13.8 mph 19.6 mph N/A   Mostly Cloudy
12:03 PM 59.0 °F - 48.2 °F 67% 29.70 in 9.0 mi West 12.7 mph 20.7 mph N/A   Scattered Clouds
12:53 PM 57.9 °F - 46.9 °F 67% 29.74 in 9.0 mi NW 17.3 mph - N/A   Partly Cloudy
1:53 PM 57.0 °F - 45.0 °F 64% 29.78 in 8.0 mi NW 16.1 mph 21.9 mph N/A   Mostly Cloudy
2:35 PM 55.4 °F - 44.6 °F 67% 29.81 in 6.0 mi NW 17.3 mph - N/A   Haze
2:53 PM 55.9 °F - 44.1 °F 64% 29.83 in 7.0 mi NW 12.7 mph 20.7 mph N/A   Mostly Cloudy
3:53 PM 51.1 °F - 42.1 °F 71% 29.85 in 6.0 mi NNW 11.5 mph - N/A   Haze
4:53 PM 48.0 °F - 39.9 °F 74% 29.89 in 6.0 mi NNW 11.5 mph - N/A   Haze
5:53 PM 45.0 °F 38.9 °F 37.9 °F 76% 29.92 in 6.0 mi North 12.7 mph - N/A   Haze
6:53 PM 42.1 °F 34.9 °F 36.0 °F 79% 29.96 in 5.0 mi North 13.8 mph - N/A   Haze
7:53 PM 41.0 °F 33.5 °F 35.1 °F 79% 29.98 in 7.0 mi North 13.8 mph 18.4 mph N/A   Overcast
8:53 PM 39.0 °F 31.4 °F 33.1 °F 79% 29.98 in 8.0 mi North 12.7 mph - N/A   Overcast
9:53 PM 37.9 °F 32.1 °F 32.0 °F 79% 30.02 in 8.0 mi NNE 8.1 mph - N/A   Overcast
10:53 PM 37.9 °F 34.4 °F 32.0 °F 79% 30.04 in 8.0 mi North 4.6 mph - N/A   Overcast
11:53 PM 37.0 °F 31.0 °F 32.0 °F 82% 30.06 in 8.0 mi NNE 8.1 mph - N/A   Overcast